When you browse on this site, cookies collect data to enhance your experience and personalize the content and advertising you see.
Visit our Privacy Policy to learn more. By continuing to use the site, you agree to this use of cookies and data.
  • In Latvia
  • List of Countries
  • For 7 days
  • Water Temperature
  • Satellite Maps
  • Weather Map
  • Weather Widgets
  • user-avatar
    Login

    Hourly Weather Lankaran

    Today, 16 June, Sunday

    Time Temperature Precipitation Wind Pressure Humidity
    00:00 +15°C° 0 mm 1 mps 632 mmHg 53%
    01:00 +15°C° 0 mm 1 mps 632 mmHg 54%
    02:00 +15°C° 0 mm 1 mps 632 mmHg 54%
    03:00 +14°C° 0 mm 1 mps 632 mmHg 54%
    04:00 +16°C° 0 mm 1 mps 632 mmHg 54%
    05:00 +18°C° 0 mm 1 mps 633 mmHg 53%
    06:00 +17°C° 0 mm 0 mps 633 mmHg 53%
    07:00 +21°C° 0 mm 1 mps 634 mmHg 49%
    08:00 +22°C° 0 mm 1 mps 634 mmHg 44%
    09:00 +24°C° 0 mm 1 mps 635 mmHg 41%
    10:00 +24°C° 0 mm 2 mps 635 mmHg 41%
    11:00 +25°C° 0 mm 2 mps 635 mmHg 41%
    12:00 +26°C° 0 mm 3 mps 635 mmHg 42%
    13:00 +25°C° 0.3 mm 3 mps 634 mmHg 46%
    14:00 +22°C° 0.3 mm 3 mps 633 mmHg 50%
    15:00 +21°C° 0.3 mm 3 mps 633 mmHg 54%
    16:00 +22°C° 0 mm 3 mps 633 mmHg 54%
    17:00 +23°C° 0 mm 2 mps 633 mmHg 54%
    18:00 +23°C° 0 mm 1 mps 632 mmHg 54%
    19:00 +21°C° 0 mm 1 mps 632 mmHg 54%
    20:00 +20°C° 0 mm 1 mps 632 mmHg 54%
    21:00 +19°C° 0 mm 1 mps 631 mmHg 54%
    22:00 +18°C° 0 mm 1 mps 631 mmHg 53%
    23:00 +18°C° 0 mm 1 mps 631 mmHg 53%

    Tomorrow, 17 June, Monday

    Time Temperature Precipitation Wind Pressure Humidity
    00:00 +18°C° 0 mm 1 mps 631 mmHg 53%
    01:00 +18°C° 0 mm 1 mps 630 mmHg 52%
    02:00 +18°C° 0 mm 1 mps 630 mmHg 52%
    03:00 +16°C° 0 mm 1 mps 630 mmHg 52%
    04:00 +19°C° 0 mm 1 mps 631 mmHg 52%
    05:00 +18°C° 0 mm 0 mps 631 mmHg 53%
    06:00 +19°C° 0 mm 0 mps 632 mmHg 53%
    07:00 +22°C° 0 mm 1 mps 632 mmHg 50%
    08:00 +23°C° 0 mm 1 mps 633 mmHg 47%
    09:00 +24°C° 0 mm 2 mps 633 mmHg 45%
    10:00 +25°C° 0 mm 2 mps 633 mmHg 45%
    11:00 +26°C° 0 mm 3 mps 633 mmHg 45%
    12:00 +27°C° 0 mm 3 mps 633 mmHg 45%
    13:00 +26°C° 0.1 mm 3 mps 633 mmHg 47%
    14:00 +26°C° 0.1 mm 3 mps 633 mmHg 48%
    15:00 +26°C° 0.1 mm 4 mps 632 mmHg 50%
    16:00 +24°C° 0.4 mm 3 mps 632 mmHg 56%
    17:00 +21°C° 0.4 mm 3 mps 631 mmHg 62%
    18:00 +20°C° 0.4 mm 2 mps 631 mmHg 67%
    19:00 +18°C° 0 mm 2 mps 631 mmHg 70%
    20:00 +18°C° 0 mm 1 mps 631 mmHg 73%
    21:00 +16°C° 0 mm 1 mps 631 mmHg 75%
    22:00 +16°C° 0 mm 1 mps 631 mmHg 74%
    23:00 +16°C° 0 mm 1 mps 631 mmHg 73%

    Day after tomorrow, 18 June, Tuesday

    Time Temperature Precipitation Wind Pressure Humidity
    00:00 +15°C° 0 mm 1 mps 631 mmHg 71%
    01:00 +15°C° 0 mm 1 mps 631 mmHg 71%
    02:00 +15°C° 0 mm 1 mps 631 mmHg 70%
    03:00 +14°C° 0 mm 1 mps 631 mmHg 69%
    04:00 +15°C° 0 mm 1 mps 631 mmHg 65%
    05:00 +16°C° 0 mm 1 mps 632 mmHg 60%
    06:00 +18°C° 0 mm 1 mps 632 mmHg 55%
    07:00 +20°C° 0 mm 1 mps 633 mmHg 50%
    08:00 +20°C° 0 mm 2 mps 633 mmHg 44%
    09:00 +21°C° 0 mm 2 mps 634 mmHg 38%
    10:00 +22°C° 0 mm 3 mps 634 mmHg 37%
    11:00 +24°C° 0 mm 3 mps 634 mmHg 37%
    12:00 +25°C° 0 mm 3 mps 634 mmHg 36%
    13:00 +23°C° 0 mm 4 mps 633 mmHg 37%
    14:00 +23°C° 0 mm 4 mps 633 mmHg 38%
    15:00 +23°C° 0 mm 4 mps 633 mmHg 39%
    16:00 +22°C° 0.1 mm 3 mps 632 mmHg 43%
    17:00 +21°C° 0.1 mm 3 mps 632 mmHg 47%
    18:00 +19°C° 0.1 mm 2 mps 631 mmHg 52%
    19:00 +18°C° 0.1 mm 2 mps 631 mmHg 54%
    20:00 +16°C° 0.1 mm 1 mps 631 mmHg 57%
    21:00 +15°C° 0.1 mm 1 mps 631 mmHg 59%
    22:00 +15°C° 0 mm 1 mps 631 mmHg 58%
    23:00 +15°C° 0 mm 1 mps 631 mmHg 57%

    19 June, Wednesday

    Time Temperature Precipitation Wind Pressure Humidity
    00:00 +14°C° 0 mm 1 mps 631 mmHg 56%
    01:00 +14°C° 0 mm 1 mps 630 mmHg 55%
    02:00 +14°C° 0 mm 1 mps 630 mmHg 55%
    03:00 +14°C° 0 mm 1 mps 630 mmHg 54%
    04:00 +15°C° 0 mm 1 mps 630 mmHg 53%
    05:00 +16°C° 0 mm 1 mps 631 mmHg 52%
    06:00 +18°C° 0 mm 1 mps 631 mmHg 52%
    07:00 +19°C° 0 mm 1 mps 632 mmHg 47%
    08:00 +20°C° 0 mm 2 mps 633 mmHg 42%
    09:00 +23°C° 0 mm 2 mps 633 mmHg 37%
    10:00 +22°C° 0 mm 3 mps 633 mmHg 37%
    11:00 +24°C° 0 mm 3 mps 633 mmHg 36%
    12:00 +25°C° 0 mm 4 mps 633 mmHg 35%
    13:00 +25°C° 0 mm 4 mps 633 mmHg 36%
    14:00 +25°C° 0 mm 4 mps 632 mmHg 38%
    15:00 +23°C° 0 mm 4 mps 632 mmHg 39%
    16:00 +22°C° 0 mm 3 mps 632 mmHg 44%
    17:00 +21°C° 0 mm 3 mps 632 mmHg 49%
    18:00 +20°C° 0 mm 2 mps 631 mmHg 54%
    19:00 +19°C° 0 mm 2 mps 631 mmHg 54%
    20:00 +18°C° 0 mm 1 mps 631 mmHg 55%
    21:00 +16°C° 0 mm 1 mps 631 mmHg 56%
    22:00 +16°C° 0 mm 1 mps 631 mmHg 54%
    23:00 +16°C° 0 mm 1 mps 630 mmHg 53%

    20 June, Thursday

    Time Temperature Precipitation Wind Pressure Humidity
    00:00 +15°C° 0 mm 1 mps 630 mmHg 52%
    01:00 +15°C° 0 mm 1 mps 630 mmHg 52%
    02:00 +15°C° 0 mm 1 mps 630 mmHg 52%
    03:00 +14°C° 0 mm 1 mps 630 mmHg 52%
    04:00 +16°C° 0 mm 1 mps 630 mmHg 52%
    05:00 +18°C° 0 mm 1 mps 631 mmHg 51%
    06:00 +19°C° 0 mm 1 mps 631 mmHg 51%
    07:00 +20°C° 0 mm 1 mps 632 mmHg 48%
    08:00 +20°C° 0 mm 2 mps 632 mmHg 45%
    09:00 +21°C° 0 mm 2 mps 633 mmHg 43%
    10:00 +22°C° 0 mm 3 mps 633 mmHg 42%
    11:00 +24°C° 0 mm 3 mps 633 mmHg 41%
    12:00 +25°C° 0 mm 4 mps 633 mmHg 41%
    13:00 +25°C° 0 mm 4 mps 632 mmHg 40%
    14:00 +25°C° 0 mm 4 mps 632 mmHg 40%
    15:00 +25°C° 0 mm 5 mps 632 mmHg 39%
    16:00 +23°C° 0 mm 4 mps 631 mmHg 44%
    17:00 +22°C° 0 mm 4 mps 631 mmHg 48%
    18:00 +20°C° 0 mm 3 mps 630 mmHg 52%
    19:00 +19°C° 0 mm 3 mps 630 mmHg 54%
    20:00 +18°C° 0 mm 2 mps 630 mmHg 55%
    21:00 +16°C° 0 mm 1 mps 630 mmHg 56%
    22:00 +16°C° 0 mm 1 mps 630 mmHg 57%
    23:00 +16°C° 0 mm 1 mps 630 mmHg 58%

    21 June, Friday

    Time Temperature Precipitation Wind Pressure Humidity
    00:00 +16°C° 0 mm 1 mps 630 mmHg 58%
    01:00 +15°C° 0 mm 1 mps 630 mmHg 60%
    02:00 +15°C° 0 mm 2 mps 630 mmHg 62%
    03:00 +15°C° 0 mm 2 mps 630 mmHg 64%
    04:00 +16°C° 0 mm 1 mps 630 mmHg 63%
    05:00 +16°C° 0 mm 1 mps 631 mmHg 61%
    06:00 +18°C° 0 mm 1 mps 631 mmHg 60%
    07:00 +19°C° 0 mm 2 mps 632 mmHg 55%
    08:00 +20°C° 0 mm 3 mps 632 mmHg 50%
    09:00 +21°C° 0 mm 4 mps 633 mmHg 46%
    10:00 +22°C° 0 mm 4 mps 633 mmHg 44%
    11:00 +23°C° 0 mm 5 mps 633 mmHg 42%
    12:00 +23°C° 0 mm 6 mps 633 mmHg 40%
    13:00 +23°C° 0 mm 6 mps 633 mmHg 41%
    14:00 +23°C° 0 mm 6 mps 633 mmHg 43%
    15:00 +23°C° 0 mm 6 mps 632 mmHg 44%
    16:00 +21°C° 0 mm 5 mps 632 mmHg 49%
    17:00 +20°C° 0 mm 4 mps 632 mmHg 54%
    18:00 +18°C° 0 mm 4 mps 632 mmHg 59%
    19:00 +18°C° 0 mm 3 mps 632 mmHg 58%
    20:00 +17°C° 0 mm 2 mps 632 mmHg 56%
    21:00 +16°C° 0 mm 2 mps 632 mmHg 54%
    22:00 +15°C° 0 mm 2 mps 632 mmHg 53%
    23:00 +15°C° 0 mm 2 mps 632 mmHg 52%
    Show more